User: anonymous   Login
Location: Unspecified
(0.0000°N, 0.0000°E)
Time: 21:59:32
(UTC+00:00)
Language:

HORYU 4 - Orbit

View from above orbital plane
View from above orbital plane
View from above satellite
View from above satellite

Ground track
Ground track

The orbit data is extracted from the following two-line orbital elements,

1 41340U 16012D   17082.70899390 +.00000788 +00000-0 +54288-4 0  9999
2 41340 031.0054 292.4456 0014434 306.7725 053.1585 15.00485029060169
Epoch (UTC): 23 March 2017 17:00:57
Eccentricity: 0.0014434
inclination: 31.0054°
perigee height: 555 km
apogee height: 575 km
right ascension of ascending node: 292.4456°
argument of perigee: 306.7725°
revolutions per day: 15.00485029
mean anomaly at epoch: 53.1585°
orbit number at epoch: 6016

The dashed part of the orbit path shows where the satellite is in the earth's shadow,  

DLR